Simultaneous Nadir Overpasses (SNOs) Predictions

Prediction of SNOs between FY3D and AQUA Satellite Orbit:

Table of predicted SNOs for the next 14.0 days since TLE Epoch: 8/20/2022
Index Date (FY3D) Time (FY3D) Lat,Lon (FY3D) SZA (FY3D ) Date (AQUA) Time (AQUA) Lat,Lon (AQUA) SZA (AQUA ) Distance(km) Time Diff (sec)
1 08/21/2022 17:20:18 76.72, -92.92 65.11 08/21/2022 17:21:02 76.72, -92.95 65.10 0.75 44
2 08/21/2022 18:10:41 -75.73, 77.98 116.05 08/21/2022 18:10:07 -75.74, 77.90 116.03 2.42 34
3 08/24/2022 08:47:11 -76.30,-143.04 114.52 08/24/2022 08:47:16 -76.30,-143.09 114.51 1.77 5
4 08/24/2022 09:37:39 75.46, 27.08 64.54 08/24/2022 09:36:25 75.45, 27.16 64.53 2.87 74
5 08/26/2022 23:23:37 -76.68, -3.53 113.18 08/26/2022 23:24:21 -76.69, -3.63 113.18 2.86 44
6 08/27/2022 00:14:09 76.05, 166.09 66.11 08/27/2022 00:13:34 76.05, 166.15 66.10 1.65 35
7 08/29/2022 14:50:33 76.36, -54.06 67.37 08/29/2022 14:50:37 76.37, -54.10 67.37 1.17 4
8 08/29/2022 15:40:33 -74.23, 119.80 114.99 08/29/2022 15:39:19 -74.19, 119.59 115.02 8.10 74
9 09/01/2022 05:27:01 76.89, 84.85 68.92 09/01/2022 05:27:43 76.89, 84.87 68.90 0.33 42



Historial Predications of SNOs between FY3D and AQUA
